Regional Weather Roundup
Issued by NWS

Home | Current Version | Previous Version | Text Only | Print | Product List | Glossary Off
Versions: 1 2 3 4 5 6 7 8 9 10 11 12 13 14 15 16 17 18 19 20 21 22 23 24 25 26 27 28 29 30 31 32 33 34 35 36 37 38 39 40 41 42 43 44 45 46 47 48 49 50

000
ASUS43 KFSD 242302
RWRSD

WEATHER ROUNDUP FOR SOUTH DAKOTA
NATIONAL WEATHER SERVICE SIOUX FALLS SD
600 PM CDT SAT JUN 24 2017

NOTE: "FAIR" INDICATES FEW OR NO CLOUDS BELOW 12,000 FEET WITH NO
SIGNIFICANT WEATHER AND/OR OBSTRUCTIONS TO VISIBILITY.


SDZ001>005-009-010-012>017-250000-
NORTHWEST AND NORTH CENTRAL SOUTH DAKOTA

CITY           SKY/WX    TMP DP  RH WIND       PRES   REMARKS
BUFFALO          N/A     71  28  20 N18       30.21S
FAITH            N/A     71  30  21 NW20G28   30.23S
MOBRIDGE       MOSUNNY   68  38  33 N20G25    30.19R
$$

SDZ012>016-024>037-041>051-057-063-072>074-250000-
SOUTHWEST AND SOUTH CENTRAL SOUTH DAKOTA

CITY           SKY/WX    TMP DP  RH WIND       PRES   REMARKS
RAPID CTY ARPT SUNNY     75  30  19 N18G30    30.25S
PIERRE         SUNNY     72  30  21 NW20G28   30.18R
CUSTER         PTSUNNY   67  24  19 MISG      30.33S
ELLSWORTH AFB  SUNNY     74  28  18 N24G30    30.24
PHILIP         SUNNY     76  32  20 N16G31    30.21R
PINE RIDGE     PTSUNNY   72  35  25 CALM      30.25F
SPEARFISH      FAIR      68  32  26 NW13G21   30.30S
WINNER         FAIR      77  32  19 NW20G29   30.19S
$$

SDZ004>011-016>023-039-040-250000-
NORTHEAST SOUTH DAKOTA

CITY           SKY/WX    TMP DP  RH WIND       PRES   REMARKS
ABERDEEN       PTSUNNY   64  43  46 N23G32    30.17R
WATERTOWN      MOSUNNY   63  41  44 NW17      30.13S
BROOKINGS      MOSUNNY   65  41  41 NW17G25   30.13S
SISSETON         N/A     63  43  48 NW17G29   30.11R
$$

SDZ017-020-022-023-036>040-048>070-250000-
SOUTHEAST SOUTH DAKOTA

CITY           SKY/WX    TMP DP  RH WIND       PRES   REMARKS
SIOUX FALLS    MOSUNNY   68  43  40 NW20G29   30.13R
HURON          SUNNY     69  40  34 N21G28    30.15S
CHAMBERLAIN    SUNNY     74  32  21 NW25G31   30.18R
MITCHELL       SUNNY     73  39  29 NW15G29   30.15R
YANKTON        SUNNY     74  36  25 NW24G35   30.13S
$$

ABBREVIATIONS USED IN REMARKS
   TC - TEMPERATURE IN CELSIUS
  WCI - WIND CHILL INDEX
   HX - HEAT INDEX
  VSB - VISIBILITY





USA.gov is the U.S. government's official web portal to all federal, state and local government web resources and services.